Menominee, MI

1:03 PM CST on December 06, 2016 (GMT -0600)
Menominee-Marinette Twin County

Weather History for KMNM - November, 2013

Change the Weather History Date:

Saturday, November 23, 2013

  Actual Average Record
Temperature  
Mean Temperature 17 °F -  
Max Temperature 24 °F 40 °F 57 °F (1963)
Min Temperature 10 °F 24 °F 3 °F (1989)
Degree Days  
Heating Degree Days 48    
Moisture  
Dew Point 1 °F    
Average Humidity 53    
Maximum Humidity 67    
Minimum Humidity 38    
Precipitation  
Precipitation 0.00 in - - ()
Sea Level Pressure  
Sea Level Pressure 30.53 in    
Wind  
Wind Speed 14 mph (NNW)    
Max Wind Speed 23 mph    
Max Gust Speed 33 mph    
Visibility 10 miles    
Events      
Averages and records for this station are not official NWS values.
T = Trace of Precipitation, MM = Missing Value Source: NWS Daily Summary

Daily Weather History Graph

Daily Weather History Graph

Search for Another Location

Airport or City:

Trip Planner

Search our weather history database for the weather conditions in past years. The results will help you decide how hot, cold, wet, or windy it might be!

Date:

Astronomy

Nov. 23, 2013 Rise Set
Actual Time 6:59 AM CST 4:14 PM CST
Civil Twilight 6:26 AM CST 4:46 PM CST
Nautical Twilight 5:50 AM CST 5:23 PM CST
Astronomical Twilight 5:15 AM CST 5:58 PM CST
Moon 9:48 PM CST (11/23) 11:10 AM CST (11/23)
Length of Visible Light 10h 19m
Length of Day
9h 14m
Waning Gibbous, 69% of the Moon is Illuminated
Nov 23
Waning Gibbous
Nov 25
Last Quarter
Dec 2
New
Dec 9
First Quarter
Dec 17
Full

Hourly Weather History & Observations

Time (CST) Temp. Windchill Dew Point Humidity Pressure Visibility Wind Dir Wind Speed Gust Speed Precip Events Conditions
12:15 AM 24.8 °F 12.4 °F 12.2 °F 59% 30.33 in 10.0 mi North 15.0 mph 20.7 mph N/A   Scattered Clouds
12:35 AM 24.8 °F 12.9 °F 12.2 °F 59% 30.33 in 10.0 mi NNW 13.8 mph 21.9 mph N/A   Overcast
12:55 AM 24.8 °F 11.9 °F 8.6 °F 50% 30.34 in 10.0 mi North 16.1 mph 25.3 mph N/A   Overcast
1:15 AM 23.0 °F 10.6 °F 8.6 °F 54% 30.35 in 10.0 mi North 13.8 mph 25.3 mph N/A   Overcast
1:35 AM 21.2 °F 7.8 °F 6.8 °F 54% 30.35 in 10.0 mi NNW 15.0 mph 21.9 mph N/A   Mostly Cloudy
1:55 AM 21.2 °F 7.8 °F 5.0 °F 50% 30.36 in 10.0 mi NNW 15.0 mph 21.9 mph N/A   Scattered Clouds
2:15 AM 21.2 °F 12.6 °F 6.8 °F 54% 30.37 in 10.0 mi NNW 6.9 mph - N/A   Mostly Cloudy
2:35 AM 19.4 °F 8.6 °F 6.8 °F 58% 30.38 in 10.0 mi NNW 9.2 mph 18.4 mph N/A   Partly Cloudy
2:55 AM 19.4 °F 6.0 °F 6.8 °F 58% 30.38 in 10.0 mi NNW 13.8 mph 21.9 mph N/A   Partly Cloudy
3:15 AM 19.4 °F 7.9 °F 6.8 °F 58% 30.38 in 10.0 mi NNW 10.4 mph 20.7 mph N/A   Partly Cloudy
3:35 AM 19.4 °F 8.6 °F 5.0 °F 54% 30.39 in 10.0 mi NNW 9.2 mph 21.9 mph N/A   Clear
4:15 AM 17.6 °F 3.7 °F 5.0 °F 58% 30.41 in 10.0 mi NNW 13.8 mph 21.9 mph N/A   Clear
4:35 AM 17.6 °F 5.0 °F 6.8 °F 63% 30.42 in 10.0 mi NNW 11.5 mph 17.3 mph N/A   Clear
4:55 AM 17.6 °F 6.4 °F 6.8 °F 63% 30.42 in 10.0 mi NNW 9.2 mph 20.7 mph N/A   Mostly Cloudy
5:15 AM 17.6 °F 4.3 °F 6.8 °F 63% 30.43 in 5.0 mi North 12.7 mph 21.9 mph N/A   Mostly Cloudy
5:35 AM 17.6 °F 0.9 °F 6.8 °F 63% 30.44 in 10.0 mi North 20.7 mph 28.8 mph N/A   Mostly Cloudy
5:55 AM 15.8 °F -0.2 °F 1.4 °F 53% 30.46 in 10.0 mi North 17.3 mph 27.6 mph N/A   Partly Cloudy
6:15 AM 15.8 °F 0.9 °F -0.4 °F 49% 30.47 in 10.0 mi North 15.0 mph 24.2 mph N/A   Clear
6:35 AM 15.8 °F -0.2 °F 1.4 °F 53% 30.48 in 10.0 mi North 17.3 mph 26.5 mph N/A   Scattered Clouds
6:55 AM 14.0 °F -0.2 °F 1.4 °F 57% 30.48 in 10.0 mi North 12.7 mph 24.2 mph N/A   Partly Cloudy
7:15 AM 14.0 °F -0.2 °F -0.4 °F 53% 30.49 in 10.0 mi North 12.7 mph 23.0 mph N/A   Clear
7:35 AM 14.0 °F -2.0 °F 1.4 °F 57% 30.50 in 10.0 mi NNW 16.1 mph 24.2 mph N/A   Clear
7:55 AM 14.0 °F -2.0 °F 1.4 °F 57% 30.51 in 10.0 mi NNW 16.1 mph 26.5 mph N/A   Clear
8:15 AM 14.0 °F -4.7 °F 1.4 °F 57% 30.52 in 10.0 mi NNW 23.0 mph 27.6 mph N/A   Clear
8:35 AM 14.0 °F -4.3 °F -0.4 °F 53% 30.52 in 10.0 mi NNW 21.9 mph 31.1 mph N/A   Clear
8:55 AM 15.8 °F -1.1 °F 1.4 °F 53% 30.53 in 10.0 mi NNW 19.6 mph 28.8 mph N/A   Clear
9:15 AM 15.8 °F 0.9 °F -0.4 °F 49% 30.54 in 10.0 mi NNW 15.0 mph 31.1 mph N/A   Clear
9:35 AM 15.8 °F -0.2 °F -0.4 °F 49% 30.54 in 10.0 mi North 17.3 mph 29.9 mph N/A   Clear
9:55 AM 15.8 °F 0.3 °F -0.4 °F 49% 30.55 in 10.0 mi North 16.1 mph 26.5 mph N/A   Clear
10:15 AM 15.8 °F -1.1 °F -0.4 °F 49% 30.55 in 10.0 mi NNW 19.6 mph 27.6 mph N/A   Partly Cloudy
10:35 AM 15.8 °F 1.4 °F -0.4 °F 49% 30.56 in 10.0 mi NNW 13.8 mph 28.8 mph N/A   Partly Cloudy
10:55 AM 17.6 °F 1.7 °F -0.4 °F 45% 30.56 in 10.0 mi North 18.4 mph 27.6 mph N/A   Clear
11:15 AM 17.6 °F 0.1 °F -2.2 °F 42% 30.55 in 10.0 mi NNW 23.0 mph 33.4 mph N/A   Clear
11:35 AM 17.6 °F 0.1 °F -0.4 °F 45% 30.55 in 10.0 mi North 23.0 mph 29.9 mph N/A   Partly Cloudy
11:55 AM 17.6 °F 1.7 °F -0.4 °F 45% 30.56 in 10.0 mi North 18.4 mph 27.6 mph N/A   Partly Cloudy
12:15 PM 17.6 °F 1.7 °F -0.4 °F 45% 30.55 in 10.0 mi North 18.4 mph 28.8 mph N/A   Partly Cloudy
12:35 PM 17.6 °F 2.2 °F -0.4 °F 45% 30.55 in 10.0 mi NNW 17.3 mph 26.5 mph N/A   Partly Cloudy
12:55 PM 17.6 °F 1.3 °F -2.2 °F 42% 30.56 in 10.0 mi NNW 19.6 mph 28.8 mph N/A   Partly Cloudy
1:15 PM 17.6 °F 1.7 °F -0.4 °F 45% 30.56 in 10.0 mi North 18.4 mph 27.6 mph N/A   Partly Cloudy
1:35 PM 17.6 °F 6.4 °F -0.4 °F 45% 30.56 in 10.0 mi NW 9.2 mph 25.3 mph N/A   Partly Cloudy
1:55 PM 17.6 °F 1.7 °F 1.4 °F 49% 30.56 in 10.0 mi NNW 18.4 mph 26.5 mph N/A   Scattered Clouds
2:15 PM 19.4 °F 5.0 °F -0.4 °F 42% 30.56 in 10.0 mi NW 16.1 mph 23.0 mph N/A   Scattered Clouds
2:35 PM 17.6 °F 3.2 °F -2.2 °F 42% 30.57 in 10.0 mi NNW 15.0 mph 24.2 mph N/A   Scattered Clouds
2:55 PM 17.6 °F 2.2 °F -0.4 °F 45% 30.57 in 10.0 mi NNW 17.3 mph 24.2 mph N/A   Partly Cloudy
3:15 PM 17.6 °F 2.7 °F -2.2 °F 42% 30.57 in 10.0 mi NNW 16.1 mph 27.6 mph N/A   Clear
3:35 PM 17.6 °F 2.7 °F -4.0 °F 38% 30.58 in 10.0 mi NNW 16.1 mph 21.9 mph N/A   Clear
3:55 PM 15.8 °F 3.4 °F -2.2 °F 45% 30.59 in 10.0 mi NNW 10.4 mph 18.4 mph N/A   Clear
4:15 PM 15.8 °F 0.3 °F -2.2 °F 45% 30.59 in 10.0 mi NNW 16.1 mph 20.7 mph N/A   Clear
4:35 PM 15.8 °F 1.4 °F -2.2 °F 45% 30.60 in 10.0 mi NNW 13.8 mph 20.7 mph N/A   Clear
4:55 PM 15.8 °F 4.2 °F -2.2 °F 45% 30.61 in 10.0 mi NNW 9.2 mph - N/A   Clear
5:15 PM 14.0 °F 1.2 °F -2.2 °F 49% 30.61 in 10.0 mi NNW 10.4 mph 19.6 mph N/A   Clear
5:35 PM 14.0 °F 2.0 °F -2.2 °F 49% 30.62 in 10.0 mi NNW 9.2 mph - N/A   Clear
5:55 PM 12.2 °F -1.0 °F -0.4 °F 57% 30.62 in 10.0 mi NNW 10.4 mph - N/A   Clear
6:15 PM 12.2 °F -0.2 °F -0.4 °F 57% 30.63 in 10.0 mi NNW 9.2 mph 17.3 mph N/A   Clear
6:35 PM 12.2 °F 1.7 °F -0.4 °F 57% 30.62 in 10.0 mi NNW 6.9 mph - N/A   Clear
6:55 PM 12.2 °F 1.7 °F -0.4 °F 57% 30.62 in 10.0 mi NW 6.9 mph - N/A   Clear
7:15 PM 12.2 °F 4.3 °F -0.4 °F 57% 30.62 in 10.0 mi NW 4.6 mph - N/A   Clear
7:35 PM 12.2 °F 6.1 °F -0.4 °F 57% 30.62 in 10.0 mi WNW 3.5 mph - N/A   Clear
7:55 PM 12.2 °F 6.1 °F -0.4 °F 57% 30.62 in 10.0 mi WNW 3.5 mph - N/A   Clear
8:15 PM 12.2 °F 4.3 °F -0.4 °F 57% 30.61 in 10.0 mi WNW 4.6 mph - N/A   Clear
8:35 PM 12.2 °F 4.3 °F 1.4 °F 62% 30.61 in 10.0 mi West 4.6 mph - N/A   Clear
8:55 PM 12.2 °F 2.9 °F 1.4 °F 62% 30.61 in 10.0 mi WNW 5.8 mph - N/A   Clear
9:15 PM 12.2 °F 2.9 °F -0.4 °F 57% 30.60 in 10.0 mi WNW 5.8 mph - N/A   Clear
9:35 PM 12.2 °F 1.7 °F 1.4 °F 62% 30.60 in 10.0 mi WNW 6.9 mph - N/A   Clear
9:55 PM 12.2 °F -0.2 °F 1.4 °F 62% 30.60 in 10.0 mi WNW 9.2 mph - N/A   Clear
10:15 PM 10.4 °F 0.8 °F -0.4 °F 62% 30.60 in 10.0 mi WNW 5.8 mph - N/A   Clear
10:35 PM 10.4 °F 0.8 °F 1.4 °F 67% 30.60 in 10.0 mi WNW 5.8 mph - N/A   Clear
10:55 PM 10.4 °F 2.2 °F -0.4 °F 62% 30.60 in 10.0 mi WNW 4.6 mph - N/A   Clear
11:15 PM 10.4 °F 4.0 °F 1.4 °F 67% 30.60 in 10.0 mi WNW 3.5 mph - N/A   Clear
11:35 PM 10.4 °F 0.8 °F 1.4 °F 67% 30.59 in 10.0 mi WNW 5.8 mph - N/A   Partly Cloudy
11:55 PM 10.4 °F 0.8 °F 1.4 °F 67% 30.59 in 10.0 mi WNW 5.8 mph - N/A   Mostly Cloudy